| time (UTC) | temp F | wind direction | speed knots | gust knots | rain 1hr in | rain 24hr in | rain mn in | humidity % | barometer mb |
| 20260505012036 | 56 | 0.0 | 0.0 | 0.00 | 0.00 | 0.00 | 72 | 1005.7 | |
| 20260505011054 | 56 | 0.0 | 0.0 | 0.00 | 0.00 | 0.00 | 70 | 1005.6 | |
| 20260505010110 | 57 | 0.0 | 0.0 | 0.00 | 0.00 | 0.00 | 69 | 1005.5 | |
| 20260505005127 | 57 | 0.0 | 0.0 | 0.00 | 0.00 | 0.00 | 68 | 1005.3 | |
| 20260505004145 | 57 | 0.0 | 0.0 | 0.00 | 0.00 | 0.00 | 69 | 1005.3 | |
| 20260505003202 | 57 | 0.0 | 0.0 | 0.00 | 0.00 | 0.00 | 67 | 1005.0 | |
| 20260505002219 | 58 | 0.0 | 0.0 | 0.00 | 0.00 | 0.00 | 64 | 1004.8 | |
| 20260505001239 | 58 | 0.0 | 0.0 | 0.00 | 0.00 | 0.00 | 64 | 1004.8 | |
| 20260505000255 | 59 | 0.0 | 0.0 | 0.00 | 0.00 | 0.00 | 62 | 1004.6 | |
| 20260504235311 | 60 | 0.0 | 0.0 | 0.00 | 0.00 | 0.00 | 60 | 1004.7 | |
| 20260504233346 | 60 | 0.0 | 0.0 | 0.00 | 0.00 | 0.00 | 58 | 1004.4 | |
| 20260504232404 | 62 | 0.0 | 0.0 | 0.00 | 0.00 | 0.00 | 54 | 1004.3 | |
| 20260504231422 | 63 | 0.0 | 0.0 | 0.00 | 0.00 | 0.00 | 53 | 1004.0 | |
| 20260504230441 | 65 | 0.0 | 0.0 | 0.00 | 0.00 | 0.00 | 51 | 1003.9 | |
| 20260504225500 | 67 | 0.0 | 0.0 | 0.00 | 0.00 | 0.00 | 48 | 1003.8 | |
| 20260504224519 | 69 | 0.0 | 0.0 | 0.00 | 0.00 | 0.00 | 45 | 1003.7 | |
| 20260504223538 | 73 | 0.0 | 0.0 | 0.00 | 0.00 | 0.00 | 39 | 1003.5 | |
| 20260504222557 | 75 | 0.0 | 0.0 | 0.00 | 0.00 | 0.00 | 34 | 1003.4 | |
| 20260504221614 | 76 | 0.0 | 0.0 | 0.00 | 0.00 | 0.00 | 30 | 1003.4 | |
| 20260504220632 | 77 | 0.0 | 0.0 | 0.00 | 0.00 | 0.00 | 29 | 1003.3 | |
| 20260504215648 | 77 | 0.0 | 0.0 | 0.00 | 0.00 | 0.00 | 31 | 1003.4 | |
| 20260504214706 | 78 | 0.0 | 0.0 | 0.00 | 0.00 | 0.00 | 29 | 1003.3 | |
| 20260504213722 | 77 | 0.0 | 0.0 | 0.00 | 0.00 | 0.00 | 30 | 1003.4 | |
| 20260504212739 | 78 | 0.0 | 0.0 | 0.00 | 0.00 | 0.00 | 29 | 1003.3 | |
| 20260504211756 | 78 | 0.0 | 0.0 | 0.00 | 0.00 | 0.00 | 28 | 1003.4 | |
| 20260504210812 | 78 | 0.0 | 0.0 | 0.00 | 0.00 | 0.00 | 30 | 1003.3 | |
| 20260504205830 | 76 | 0.0 | 0.0 | 0.00 | 0.00 | 0.00 | 34 | 1003.3 | |
| 20260504204846 | 78 | 0.0 | 0.0 | 0.00 | 0.00 | 0.00 | 35 | 1003.2 | |
| 20260504203903 | 78 | 0.0 | 0.0 | 0.00 | 0.00 | 0.00 | 33 | 1003.2 | |
| 20260504202919 | 78 | 0.0 | 0.0 | 0.00 | 0.00 | 0.00 | 29 | 1003.2 | |
| 20260504201935 | 76 | 0.0 | 0.0 | 0.00 | 0.00 | 0.00 | 30 | 1003.4 | |
| 20260504200952 | 77 | 0.0 | 0.0 | 0.00 | 0.00 | 0.00 | 34 | 1003.5 | |
| 20260504200008 | 76 | 0.0 | 0.0 | 0.00 | 0.00 | 0.00 | 32 | 1003.5 | |
| 20260504195027 | 78 | 0.0 | 0.0 | 0.00 | 0.00 | 0.00 | 31 | 1003.6 | |
| 20260504194043 | 78 | 0.0 | 0.0 | 0.00 | 0.00 | 0.00 | 30 | 1003.5 | |
| 20260504193059 | 79 | 0.0 | 0.0 | 0.00 | 0.00 | 0.00 | 29 | 1003.6 | |
| 20260504192116 | 79 | 0.0 | 0.0 | 0.00 | 0.00 | 0.00 | 30 | 1003.5 | |
| 20260504191133 | 79 | 0.0 | 0.0 | 0.00 | 0.00 | 0.00 | 31 | 1003.7 | |
| 20260504190148 | 78 | 0.0 | 0.0 | 0.00 | 0.00 | 0.00 | 29 | 1003.8 | |
| 20260504185203 | 76 | 0.0 | 0.0 | 0.00 | 0.00 | 0.00 | 32 | 1003.8 | |
| 20260504184220 | 74 | 0.0 | 0.0 | 0.00 | 0.00 | 0.00 | 32 | 1004.0 | |
| 20260504183237 | 74 | 0.0 | 0.0 | 0.00 | 0.00 | 0.00 | 32 | 1004.1 | |
| 20260504182254 | 75 | 0.0 | 0.0 | 0.00 | 0.00 | 0.00 | 30 | 1003.9 | |
| 20260504181312 | 76 | 0.0 | 0.0 | 0.00 | 0.00 | 0.00 | 30 | 1003.8 | |
| 20260504180330 | 76 | 0.0 | 0.0 | 0.00 | 0.00 | 0.00 | 31 | 1003.8 | |
| 20260504175345 | 77 | 0.0 | 0.0 | 0.00 | 0.00 | 0.00 | 29 | 1003.8 | |
| 20260504174401 | 75 | 0.0 | 0.0 | 0.00 | 0.00 | 0.00 | 30 | 1003.8 | |
| 20260504173418 | 75 | 0.0 | 0.0 | 0.00 | 0.00 | 0.00 | 30 | 1003.8 | |
| 20260504172437 | 76 | 0.0 | 0.0 | 0.00 | 0.00 | 0.00 | 30 | 1003.7 | |
| 20260504171454 | 78 | 0.0 | 0.0 | 0.00 | 0.00 | 0.00 | 33 | 1003.6 | |
| 20260504170509 | 76 | 0.0 | 0.0 | 0.00 | 0.00 | 0.00 | 34 | 1003.5 | |
| 20260504150856 | 103 | 0.0 | 0.0 | 0.00 | 0.00 | 0.00 | 17 | 1004.9 | |
| 20260504141012 | 83 | 0.0 | 0.0 | 0.00 | 0.00 | 0.00 | 27 | 1005.8 | |
| 20260504130202 | 82 | 0.0 | 0.0 | 0.00 | 0.00 | 0.00 | 28 | 1006.6 | |
| 20260504110450 | 56 | 0.0 | 0.0 | 0.00 | 0.00 | 0.00 | 46 | 1007.1 | |
| 20260504081932 | 49 | 0.0 | 0.0 | 0.00 | 0.00 | 0.00 | 49 | 1006.9 | |
| 20260504080948 | 48 | 0.0 | 0.0 | 0.00 | 0.00 | 0.00 | 50 | 1007.0 | |
| 20260504070146 | 46 | 0.0 | 0.0 | 0.00 | 0.00 | 0.00 | 53 | 1006.9 | |
| 20260504050513 | 47 | 0.0 | 0.0 | 0.00 | 0.00 | 0.00 | 54 | 1006.7 | |
| 20260504045530 | 46 | 0.0 | 0.0 | 0.00 | 0.00 | 0.00 | 54 | 1006.7 | |
| 20260504044548 | 46 | 0.0 | 0.0 | 0.00 | 0.00 | 0.00 | 56 | 1006.7 | |
| 20260504043605 | 46 | 0.0 | 0.0 | 0.00 | 0.00 | 0.00 | 54 | 1006.7 | |
| 20260504042622 | 46 | 0.0 | 0.0 | 0.00 | 0.00 | 0.00 | 54 | 1006.8 | |
| 20260504041639 | 46 | 0.0 | 0.0 | 0.00 | 0.00 | 0.00 | 55 | 1006.8 | |
| 20260504040656 | 46 | 0.0 | 0.0 | 0.00 | 0.00 | 0.00 | 54 | 1006.8 | |
| 20260504035713 | 47 | 0.0 | 0.0 | 0.00 | 0.00 | 0.00 | 54 | 1006.7 | |
| 20260504034732 | 47 | 0.0 | 0.0 | 0.00 | 0.00 | 0.00 | 54 | 1006.6 | |
| 20260504033749 | 47 | 0.0 | 0.0 | 0.00 | 0.00 | 0.00 | 52 | 1006.5 | |
| 20260504032806 | 48 | 0.0 | 0.0 | 0.00 | 0.00 | 0.00 | 52 | 1006.6 | |
| 20260504031823 | 48 | 0.0 | 0.0 | 0.00 | 0.00 | 0.00 | 51 | 1006.5 | |
| 20260504030841 | 48 | 0.0 | 0.0 | 0.00 | 0.00 | 0.00 | 52 | 1006.5 | |
| 20260504025858 | 48 | 0.0 | 0.0 | 0.00 | 0.00 | 0.00 | 53 | 1006.5 | |
| 20260504024915 | 48 | 0.0 | 0.0 | 0.00 | 0.00 | 0.00 | 53 | 1006.5 | |
| 20260504023932 | 48 | 0.0 | 0.0 | 0.00 | 0.00 | 0.00 | 52 | 1006.5 | |
| 20260504022951 | 48 | 0.0 | 0.0 | 0.00 | 0.00 | 0.00 | 52 | 1006.5 | |
| 20260504022008 | 49 | 0.0 | 0.0 | 0.00 | 0.00 | 0.00 | 51 | 1006.7 | |
| 20260504021025 | 49 | 0.0 | 0.0 | 0.00 | 0.00 | 0.00 | 50 | 1006.6 | |
| 20260504020043 | 50 | 0.0 | 0.0 | 0.00 | 0.00 | 0.00 | 49 | 1006.4 | |
| 20260504015101 | 50 | 0.0 | 0.0 | 0.00 | 0.00 | 0.00 | 48 | 1006.4 | |
| 20260504014119 | 50 | 0.0 | 0.0 | 0.00 | 0.00 | 0.00 | 48 | 1006.4 | |
| 20260504013137 | 51 | 0.0 | 0.0 | 0.00 | 0.00 | 0.00 | 47 | 1006.3 |